RH
58 56 54 53 51 49 47 45 44 41 39 37 34 32 29 26 25 24 23 23 22 21 20 19 19 18 16 15 14 13 13 13 12 11 11 10 9 9 10 10 9 10 10 8 8 10 10 9 8 7 9 9 9 9 9 8 6 7 7 9 10 10 10 9 11 12 16 17 14 15 16 21 29 29 32 35 33 32 32 36 42 44 44 44 42 41 40 37
62 60 58 57 55 53 50 48 46 43 41 39 37 35 32 30 28 27 26 25 25 24 23 22 22 20 19 17 16 16 15 14 13 12 11 10 10 10 10 10 10 11 10 10 9 11 11 9 8 9 11 10 10 10 9 9 7 8 8 10 11 11 10 10 11 13 20 23 21 23 20 25 33 30 27 31 31 28 30 34 38 42 43 44 42 39 36 31
63 64 63 61 59 57 54 51 49 47 45 44 41 39 36 34 32 31 29 28 27 26 25 25 24 22 21 20 19 18 16 15 13 13 12 10 10 10 11 11 11 11 11 11 11 12 11 10 10 11 12 12 12 11 11 10 9 9 9 11 13 12 10 10 11 12 19 23 26 29 25 27 32 28 25 23 24 25 28 31 35 39 39 39 40 38 37 34
63 64 65 64 62 60 57 55 52 51 50 48 47 45 42 39 37 35 33 31 29 28 27 26 25 24 23 21 20 19 17 16 14 13 12 11 11 11 11 11 11 11 11 12 12 13 12 12 12 12 14 14 14 12 13 13 11 10 11 13 14 13 11 11 11 11 14 17 23 30 30 29 26 24 21 14 14 20 26 30 34 37 36 37 39 40 42 38
64 64 64 64 64 62 60 59 57 55 54 53 52 50 48 46 43 40 36 34 32 31 30 28 26 25 24 22 21 19 17 16 15 14 13 12 12 11 11 12 12 12 12 13 13 13 13 13 14 14 16 16 15 14 16 15 12 12 13 15 15 14 14 13 12 11 12 12 17 25 28 26 21 19 15 10 13 17 24 30 32 34 34 36 39 41 41 34
68 66 64 63 63 62 62 61 60 59 58 57 55 53 50 48 47 44 41 38 35 33 32 30 28 26 25 23 21 19 18 16 15 13 13 12 12 12 12 12 12 12 13 13 13 13 14 15 16 17 17 18 16 16 17 15 13 14 16 17 16 16 16 15 14 13 12 11 14 17 18 20 18 17 15 17 21 22 25 28 30 32 31 32 37 37 33 27
72 70 68 66 65 64 64 63 63 61 60 58 56 53 50 47 46 45 43 41 40 36 33 31 29 27 25 22 20 19 18 17 15 14 13 12 12 12 11 12 12 12 13 13 13 13 14 16 18 18 18 18 17 18 18 16 15 16 18 19 18 17 17 17 15 15 13 12 14 13 14 17 18 19 21 23 25 25 23 23 26 27 26 27 30 29 25 23
63 71 71 69 68 67 67 67 66 63 61 59 56 53 49 47 45 43 43 43 42 39 36 33 30 27 24 21 20 19 18 17 15 14 13 13 12 11 11 11 11 12 12 12 13 13 14 16 18 19 19 18 18 19 18 17 17 19 20 20 19 17 18 17 15 15 15 13 14 13 14 16 17 21 23 24 26 27 22 20 21 19 21 22 23 24 23 25
43 60 70 71 70 70 69 69 68 65 62 60 57 54 51 48 46 45 45 44 42 41 39 35 30 26 22 20 20 18 17 16 14 13 12 12 12 11 11 11 11 11 11 12 12 12 13 15 18 19 19 19 19 19 19 17 18 19 20 19 18 17 18 18 14 14 14 14 15 14 15 16 17 20 20 21 26 29 23 19 18 17 20 21 23 25 23 26
27 40 58 69 70 70 70 71 70 68 65 62 59 56 53 51 49 49 47 45 44 43 41 35 27 23 20 19 18 16 15 14 13 12 12 11 11 11 10 10 11 10 11 11 11 12 12 14 16 18 19 19 19 19 18 18 18 18 19 18 17 18 18 18 16 15 15 15 15 15 16 18 18 19 19 20 23 25 22 19 18 19 21 22 28 32 29 30
23 26 39 58 68 70 70 71 71 70 67 65 62 58 56 54 52 51 48 48 47 45 39 31 24 21 19 18 16 14 14 13 12 11 10 10 10 10 10 10 10 10 11 12 12 11 11 13 15 17 19 19 19 19 18 18 19 18 19 18 18 18 18 19 18 17 17 16 16 16 16 18 19 19 20 21 22 21 19 19 20 21 21 22 31 39 37 34
26 24 28 44 61 68 70 71 71 71 70 67 64 61 58 56 54 52 50 49 48 44 36 26 21 19 18 16 15 14 13 12 10 10 9 9 9 9 9 9 9 9 10 11 12 12 12 12 14 16 18 18 19 19 18 19 19 19 19 19 18 18 17 19 20 19 19 19 18 17 16 18 19 20 20 20 21 21 19 20 20 21 21 24 35 42 40 36
29 28 29 40 56 65 68 71 72 72 71 68 65 62 59 58 56 52 50 48 46 40 29 22 19 18 16 15 15 14 13 11 9 9 9 9 9 9 9 9 9 9 10 11 12 13 13 13 14 15 17 18 19 19 19 19 19 20 19 19 19 18 18 19 20 21 20 20 19 18 16 18 19 18 19 19 20 20 19 20 20 20 24 34 46 49 45 39
35 35 38 46 55 64 68 70 72 73 71 67 64 61 59 57 56 54 52 48 41 32 24 20 18 16 15 15 15 14 13 11 9 9 9 9 9 9 9 10 10 10 10 11 12 13 14 15 15 16 17 18 19 19 19 19 19 19 19 19 18 18 19 19 19 19 18 17 17 17 16 17 17 16 18 19 20 19 19 19 19 22 29 41 51 51 46 37
41 41 44 51 58 64 67 69 70 71 70 67 64 62 59 57 57 55 50 42 34 26 22 19 17 16 14 14 15 15 14 12 10 9 9 9 9 9 9 10 10 11 11 11 12 13 14 15 15 16 17 17 17 17 17 17 18 18 17 18 18 18 18 18 17 15 13 12 13 14 15 16 16 16 18 18 19 18 18 20 22 26 32 41 46 44 40 33
44 46 48 52 58 63 65 67 68 68 68 66 64 61 59 58 55 50 43 35 29 24 20 18 17 15 14 15 15 15 15 14 12 10 10 10 10 9 9 9 10 10 10 11 11 12 13 13 13 14 14 14 15 15 15 15 15 16 16 16 17 17 16 15 14 11 9 9 11 13 14 15 15 15 17 18 19 18 19 25 29 31 33 36 39 40 38 35
40 44 48 51 54 58 60 62 64 64 63 61 59 58 57 54 50 44 36 30 26 22 19 18 17 16 15 15 15 15 15 15 14 12 11 11 10 10 9 8 9 9 9 9 10 10 11 11 11 11 12 12 12 13 13 13 14 14 15 15 16 15 14 12 11 10 8 8 10 12 13 14 14 15 17 18 18 18 21 26 27 31 40 47 54 59 53 43
39 39 42 44 47 49 51 54 56 58 58 56 54 52 51 49 45 40 33 28 25 21 19 19 18 17 16 15 15 15 15 15 15 15 13 12 11 10 10 9 8 8 8 8 8 9 9 9 9 9 9 10 10 10 11 12 12 13 13 13 13 13 12 11 12 12 10 12 16 15 15 14 13 15 19 21 19 19 24 28 39 57 71 77 76 74 64 50
40 39 38 39 40 42 44 46 48 51 52 50 48 46 45 44 42 37 31 28 25 21 19 19 19 18 17 17 16 16 15 15 15 15 15 13 12 11 11 10 10 9 8 8 8 8 8 8 8 8 7 8 8 8 10 10 10 10 10 10 10 10 11 13 16 16 14 24 33 30 26 22 17 17 22 25 24 25 30 42 67 84 83 78 73 68 60 48
45 41 40 39 38 38 39 40 43 45 46 45 42 41 42 41 38 34 31 29 25 21 19 19 19 19 19 18 18 16 16 16 16 16 15 15 14 12 11 11 11 11 10 9 8 8 8 7 7 7 7 7 8 9 9 8 8 9 9 9 9 9 12 15 21 26 26 36 48 45 37 30 24 27 32 32 31 34 37 49 70 76 71 72 72 72 61 45
56 49 43 41 40 40 38 39 40 40 42 43 41 40 39 37 34 30 29 28 25 21 19 19 19 19 20 20 19 18 17 17 17 17 17 17 16 14 13 12 11 11 11 10 9 9 8 8 7 7 7 7 8 8 8 8 8 8 9 10 10 10 12 17 28 40 42 47 58 57 46 35 29 35 41 38 39 43 41 46 59 65 73 80 79 82 73 54
66 61 53 46 43 42 42 42 41 41 40 40 40 38 33 32 30 29 28 25 23 22 18 18 19 19 20 20 20 19 19 19 18 19 19 19 18 16 14 14 13 12 11 11 10 10 10 9 8 7 7 7 7 7 7 8 7 7 10 13 15 15 16 22 31 45 53 54 62 67 60 48 37 40 49 49 51 55 50 48 56 64 77 87 87 88 81 65
70 70 66 59 51 45 43 44 45 45 44 43 40 34 29 31 31 31 29 25 23 21 18 18 18 18 19 20 20 21 21 20 19 20 20 19 19 18 16 15 14 13 12 12 11 11 11 11 10 9 8 8 8 8 7 8 8 9 14 19 22 20 23 32 36 46 60 61 63 70 69 62 50 44 52 59 61 63 60 56 58 61 72 86 90 87 80 73
64 68 71 71 65 56 47 43 45 47 47 48 48 42 32 31 33 33 30 26 24 22 20 19 18 19 20 21 22 23 23 22 21 21 21 21 20 19 18 16 15 14 13 12 12 12 12 12 11 11 10 9 8 8 8 9 10 13 18 24 29 27 31 42 44 50 64 67 67 72 72 70 63 53 56 66 68 66 62 61 62 62 69 80 84 83 83 81
60 62 66 70 73 70 59 46 40 43 48 48 50 52 45 34 30 31 30 25 24 22 21 22 21 21 21 22 25 25 25 24 23 23 23 23 23 20 19 17 16 15 14 14 13 12 12 12 12 12 11 11 10 10 10 10 11 17 23 26 31 33 39 50 53 57 68 71 70 72 73 74 74 69 69 74 77 73 67 65 65 66 70 76 80 87 90 86
60 62 63 65 70 74 71 60 43 37 43 45 44 48 51 47 38 31 31 29 28 27 25 24 24 24 22 23 26 26 26 27 26 25 25 25 24 22 21 19 17 16 15 15 14 13 13 12 13 13 12 12 12 12 13 14 15 23 32 34 35 39 48 61 64 65 70 72 72 72 71 76 80 78 74 77 83 80 74 72 69 66 68 73 80 89 90 84
55 59 62 63 65 69 72 70 60 45 39 39 41 43 44 49 51 46 41 37 36 38 37 33 30 29 28 26 26 27 28 29 27 27 27 26 25 24 23 21 19 18 17 16 16 16 15 14 14 14 14 13 13 14 15 15 18 25 37 45 45 45 55 70 72 71 73 74 77 77 71 73 83 83 73 73 80 80 77 77 75 71 71 75 81 84 83 82
55 56 59 62 63 65 65 68 70 63 50 39 39 43 40 41 47 52 51 44 43 48 50 49 44 39 37 34 35 38 39 36 34 33 31 29 27 25 25 25 24 22 19 18 19 19 18 17 16 16 16 15 16 19 18 17 23 29 38 51 55 51 58 73 76 75 76 76 81 83 75 72 81 85 75 66 70 75 77 77 77 78 76 78 82 82 80 81
57 60 61 61 62 64 64 65 67 68 66 54 44 42 43 42 41 45 50 48 51 59 63 65 63 57 48 44 48 54 55 54 52 47 40 35 31 27 27 30 29 27 24 21 20 22 22 21 20 19 18 18 20 24 23 22 30 35 37 48 61 62 63 74 80 80 79 80 84 85 83 80 79 83 79 70 70 76 79 76 74 74 73 75 80 83 83 83
46 58 65 66 66 66 65 65 65 65 67 67 60 49 43 44 42 43 46 46 51 61 68 72 74 72 64 59 59 59 60 66 69 65 56 47 41 35 33 33 31 29 27 25 23 23 25 27 27 26 24 24 24 26 28 27 31 36 37 42 54 67 72 76 82 86 86 87 89 89 90 90 85 83 81 75 69 69 73 76 74 71 68 69 74 81 84 85
35 45 59 66 68 69 69 68 65 64 63 65 67 63 54 48 45 44 44 43 48 56 62 67 67 70 73 74 74 70 65 67 73 74 66 57 50 43 39 38 38 35 30 28 27 28 30 32 34 33 33 31 30 32 38 38 33 34 37 35 36 52 71 82 86 86 87 89 89 89 89 88 87 84 78 71 58 49 58 70 74 72 67 66 72 79 81 81
29 35 46 58 63 67 71 69 66 65 62 60 62 65 64 60 55 53 50 50 55 59 62 62 59 63 68 72 77 80 77 74 76 79 72 62 57 54 53 52 48 43 36 33 34 35 35 36 37 37 37 36 36 42 47 46 39 34 35 33 27 32 51 75 88 86 86 90 88 87 86 82 82 76 64 54 45 44 57 67 67 68 70 70 74 78 78 77
18 26 37 49 56 61 65 65 66 68 66 61 57 58 62 63 61 61 64 66 66 67 69 63 57 59 59 63 74 82 85 84 83 85 79 68 62 63 68 67 59 55 49 42 41 42 44 47 45 42 44 40 36 42 53 57 53 45 39 35 30 25 29 50 75 85 88 91 90 89 84 80 79 69 49 35 29 34 46 53 53 57 66 71 74 77 77 76
14 15 26 41 51 57 57 57 61 67 68 64 60 57 56 59 60 61 64 68 70 71 71 66 61 56 53 64 81 83 85 90 89 87 84 76 68 63 63 64 61 62 59 52 47 46 54 63 59 54 54 49 41 45 61 73 71 59 47 39 34 27 21 29 49 72 87 91 92 89 81 76 71 56 39 32 26 25 33 42 47 52 60 66 69 70 71 73
28 16 14 26 42 50 51 51 52 57 63 65 65 63 58 57 62 66 62 61 69 70 64 64 68 65 60 72 84 78 79 88 89 88 85 79 72 64 60 61 62 62 60 60 58 52 54 61 66 67 64 57 53 54 67 79 74 62 53 47 41 33 27 24 27 43 63 73 75 73 65 61 56 43 33 31 26 24 31 39 43 48 53 60 67 71 73 77
45 33 16 13 25 36 42 46 48 48 51 56 60 62 62 60 65 74 71 63 67 67 60 57 60 68 75 84 86 78 80 86 84 87 90 85 80 75 71 72 70 62 56 57 60 58 54 53 58 67 71 66 57 56 72 82 75 66 61 53 49 45 42 44 41 37 41 49 53 54 53 52 52 48 41 38 34 29 32 39 42 48 55 59 65 72 77 81
52 48 33 17 13 17 26 35 41 43 42 44 48 51 57 62 64 74 81 76 69 64 61 55 49 59 76 88 93 89 91 95 87 86 89 88 88 85 77 75 69 61 56 55 56 56 56 57 55 61 77 81 65 61 77 80 71 73 71 61 56 55 53 57 60 52 43 44 48 50 52 52 53 49 38 37 40 36 34 36 41 54 70 74 73 80 86 88
53 53 48 35 19 11 14 20 26 32 34 35 39 40 46 52 55 64 78 85 82 71 65 57 49 52 60 74 89 92 94 99 94 92 92 90 92 86 75 70 65 65 67 66 68 65 58 60 62 65 80 88 79 80 89 80 73 80 80 73 71 72 71 67 64 56 48 49 53 55 55 56 60 55 37 30 39 43 43 43 45 58 78 88 89 91 90 86
48 51 51 47 34 19 12 13 15 20 24 27 30 32 35 38 39 46 59 75 85 82 73 62 53 50 49 57 71 81 90 94 92 97 99 94 91 84 74 69 65 69 76 77 82 81 69 65 75 85 91 90 90 96 96 87 87 88 79 73 75 78 85 84 75 68 62 63 66 65 62 60 64 64 49 35 36 45 57 66 70 73 80 89 92 87 77 74
29 41 49 52 46 31 18 13 13 13 14 18 21 22 24 25 25 30 40 54 69 77 77 67 56 51 48 47 51 63 81 91 92 96 96 92 90 83 75 69 66 70 75 79 82 83 80 78 85 98 101 96 98 100 95 92 97 94 80 72 74 77 81 81 81 79 73 76 81 75 64 60 66 76 74 63 54 54 65 77 85 87 88 90 89 84 79 79
11 23 39 53 55 43 26 16 13 12 11 12 14 14 16 17 16 21 29 39 50 60 67 66 59 52 47 46 45 48 59 76 91 98 94 89 90 88 82 78 78 78 76 78 78 78 84 87 90 101 103 99 102 101 97 99 102 98 86 72 70 76 77 74 77 77 70 73 81 76 63 59 69 84 93 91 83 76 76 80 82 85 87 88 87 88 90 88
5 8 22 43 58 55 38 23 17 15 12 11 12 11 12 13 13 15 21 30 39 46 53 58 57 54 50 47 47 44 44 55 76 95 100 95 92 92 92 92 95 95 89 88 83 74 77 84 90 100 102 100 102 101 100 98 97 101 97 79 67 68 72 73 72 71 67 64 67 68 61 55 58 71 85 92 93 91 89 85 80 78 79 82 86 87 86 84
5 4 8 26 51 64 52 31 20 19 17 15 15 13 12 11 11 13 16 23 31 37 44 48 51 55 56 51 49 49 48 47 54 74 89 95 97 95 90 88 91 94 96 100 96 83 76 78 84 93 100 102 101 101 101 93 85 95 102 92 76 67 67 70 67 65 67 62 62 66 60 45 38 45 56 63 68 75 79 81 79 79 80 78 76 75 76 78
6 5 4 11 33 60 69 50 28 20 18 18 19 18 17 14 10 11 14 18 24 30 36 39 43 51 57 56 55 55 54 48 45 56 69 83 96 95 83 76 77 83 90 95 98 96 90 85 86 88 91 97 102 101 101 96 87 93 102 98 88 76 69 70 69 69 69 63 62 63 53 39 33 36 40 42 50 60 68 74 76 78 81 81 77 77 79 76
8 6 5 13 28 46 64 65 46 30 29 31 27 23 23 21 16 13 12 12 19 26 30 32 35 42 49 51 53 53 54 51 45 49 61 75 92 97 89 77 70 74 83 86 90 96 98 95 96 95 87 89 98 96 91 96 96 95 97 94 89 83 75 69 71 78 78 72 69 64 50 39 37 42 47 47 48 53 55 57 57 58 66 74 75 72 67 58
9 6 6 30 57 60 63 71 62 47 47 49 42 39 41 34 23 18 14 11 15 20 26 29 31 37 42 42 42 46 53 56 53 53 58 69 86 99 101 91 78 76 83 90 93 95 97 95 95 100 96 89 94 92 87 93 99 97 96 93 89 88 79 66 64 76 83 77 70 60 44 36 37 43 49 44 34 32 32 32 34 37 44 51 54 52 50 48
9 8 4 30 79 94 84 84 78 62 57 56 55 65 68 46 26 23 21 16 15 17 22 27 32 42 47 40 36 42 48 54 61 67 69 73 81 90 94 93 91 91 93 96 98 96 98 99 94 96 100 95 92 92 93 96 99 100 101 97 91 89 89 80 71 76 81 72 58 43 29 27 30 29 29 26 20 19 20 23 29 32 35 38 40 42 43 42
8 10 5 22 76 106 96 93 96 87 79 77 79 91 87 55 28 26 26 22 20 19 22 26 31 46 58 49 38 41 49 56 64 70 76 84 85 82 82 81 81 86 88 88 88 84 88 99 99 97 102 103 96 94 97 99 99 100 101 100 93 87 89 90 84 82 81 70 54 38 25 23 25 21 20 21 21 21 20 22 27 30 30 29 28 28 27 24
9 11 7 16 61 101 102 96 99 99 96 94 95 102 100 76 48 34 28 28 27 23 25 30 32 44 63 64 49 39 45 62 73 71 70 82 89 84 80 78 74 74 77 77 75 71 77 95 103 100 102 103 101 100 99 96 96 97 98 97 88 74 65 62 62 61 58 54 48 40 35 35 33 30 30 26 22 22 21 21 24 25 22 18 16 16 15 14
11 12 10 11 37 79 102 101 100 101 100 100 101 103 103 96 79 59 43 35 33 29 28 33 37 44 59 69 64 52 50 65 85 87 76 77 87 88 84 85 83 79 76 72 65 58 61 78 95 102 104 102 101 104 102 98 98 100 101 94 78 61 49 42 40 38 37 43 48 46 49 56 55 50 45 35 25 21 21 21 21 18 16 14 14 14 13 14
13 12 12 12 19 46 77 92 98 102 101 99 103 104 102 102 99 89 72 54 43 37 33 32 36 41 48 54 60 61 58 61 75 87 87 84 90 94 88 82 79 74 74 78 75 61 51 55 69 82 88 86 84 88 92 93 93 92 94 94 86 74 64 57 51 44 40 47 59 66 68 68 64 60 56 49 40 32 27 24 21 18 16 15 15 15 15 16
16 13 11 12 17 34 61 77 85 96 101 100 101 102 101 101 102 101 96 81 64 51 40 32 31 33 37 39 41 47 53 56 58 66 78 84 84 82 75 70 71 74 79 88 91 82 68 60 57 57 56 54 53 57 61 64 63 60 60 67 72 71 68 64 59 52 42 40 52 70 82 84 81 78 72 63 53 42 31 23 19 18 18 18 20 21 23 22
Wind_Speed
24 24 24 24 24 24 24 24 24 24 24 24 24 24 24 24 25 25 25 25 25 26 26 26 26 27 28 28 29 30 30 30 31 31 32 32 32 32 31 30 30 30 30 31 30 28 28 29 29 29 28 27 27 26 26 27 27 25 23 20 17 16 17 15 16 21 25 27 30 33 36 38 38 37 37 36 35 34 34 33 30 30 30 30 31 32 32 32
25 25 25 25 25 24 24 24 24 24 24 23 24 24 24 24 24 24 25 25 25 25 25 25 26 27 27 28 29 30 30 31 31 32 32 32 32 32 31 30 30 30 30 31 31 29 29 30 29 28 27 27 27 26 26 27 26 25 22 19 16 16 19 18 18 24 28 30 32 35 38 39 37 37 37 35 35 36 35 34 32 31 30 30 30 30 29 28
26 26 26 25 25 25 25 24 24 24 24 23 24 24 24 24 24 24 24 25 25 25 25 25 26 27 27 28 29 29 30 31 31 32 32 32 32 32 31 30 30 30 30 30 30 29 29 29 29 27 26 26 26 26 25 26 25 25 23 18 14 17 21 20 20 26 31 33 34 37 40 40 40 38 37 36 36 37 37 36 34 31 31 30 28 27 27 26
28 27 27 26 26 26 25 25 25 25 25 24 24 24 24 24 24 24 24 25 25 25 25 25 26 26 27 28 28 29 29 30 31 31 31 32 32 31 31 30 30 30 30 29 29 29 29 29 28 27 25 25 25 25 24 23 24 24 22 17 16 21 22 21 22 25 31 34 36 38 40 40 41 40 39 37 37 37 36 35 33 30 29 29 28 27 28 27
29 29 28 28 28 27 27 26 26 26 26 26 26 26 25 25 24 24 24 25 25 25 25 25 26 26 27 27 28 28 29 30 30 30 31 31 31 31 30 29 29 29 29 28 28 29 28 28 27 26 25 25 26 25 23 23 25 24 20 17 19 20 20 20 22 24 29 33 36 39 39 40 40 40 37 33 33 33 32 30 29 28 27 27 28 28 28 26
29 29 29 29 29 28 28 27 27 27 27 28 28 28 27 27 26 25 25 25 25 25 25 25 25 26 26 27 27 27 28 29 29 29 29 29 29 29 29 29 28 28 28 28 28 28 28 27 26 26 25 25 26 24 24 26 26 24 20 18 19 19 19 21 22 24 28 30 34 35 36 37 36 36 31 26 26 26 26 26 26 26 25 25 27 27 26 24
30 30 29 29 29 29 28 28 28 28 29 29 29 28 28 28 27 27 27 26 25 24 25 25 25 26 26 26 26 27 28 28 28 28 28 28 28 28 28 28 28 27 28 28 28 28 28 27 26 26 25 26 26 25 27 28 27 24 20 18 19 20 19 21 23 25 26 27 30 31 31 33 31 30 27 23 23 23 23 23 23 23 22 23 23 23 22 20
30 30 29 29 29 29 28 28 28 29 29 29 29 28 28 27 27 27 27 26 25 25 24 24 25 26 26 26 26 26 27 27 27 27 26 27 27 27 26 26 26 27 28 28 28 28 27 27 26 26 27 28 28 28 30 30 28 24 22 21 23 22 22 23 25 25 25 25 27 27 27 28 25 24 25 23 23 23 23 22 21 20 20 19 18 18 18 18
29 29 29 29 28 28 28 28 28 28 29 29 28 28 27 27 26 26 25 25 25 25 24 24 25 25 26 25 25 26 26 26 26 26 25 26 26 26 26 26 25 26 26 27 28 27 27 28 28 28 29 30 30 31 31 30 28 25 25 25 24 23 23 25 25 24 23 23 24 24 24 24 22 21 23 23 22 23 23 21 19 18 17 16 15 16 17 17
28 28 28 28 28 27 27 27 28 28 28 28 28 27 26 26 25 24 24 24 24 24 24 25 25 25 25 24 24 25 25 25 25 25 25 25 25 25 26 25 25 25 25 26 26 27 28 30 30 30 31 31 30 31 31 30 28 26 26 26 24 23 23 24 24 23 23 23 22 20 21 22 20 20 21 22 23 23 21 20 18 16 16 15 14 15 14 14
26 27 27 27 27 27 26 26 26 27 27 27 26 26 25 25 24 24 24 23 23 24 24 25 24 24 23 23 24 23 24 24 23 23 24 24 24 24 24 24 24 24 24 24 26 28 29 30 30 30 30 29 29 30 30 29 28 27 26 25 24 23 23 24 24 24 24 24 22 20 19 18 16 18 21 24 24 21 19 18 16 15 15 15 14 13 11 12
24 25 25 26 26 26 25 25 25 25 25 25 25 24 24 24 24 23 23 23 23 23 24 24 23 23 23 23 22 21 23 23 21 21 22 22 22 22 22 23 23 23 24 25 26 26 27 28 28 29 29 28 28 29 28 27 27 27 26 25 24 23 22 22 24 26 27 26 24 22 20 16 15 19 24 27 24 20 19 18 16 15 15 15 15 13 12 12
22 23 24 24 24 24 24 24 24 24 23 23 23 23 23 23 23 23 23 22 23 23 23 23 22 22 22 22 20 20 22 20 18 19 20 20 20 20 20 21 21 22 24 25 24 25 25 25 27 28 27 27 27 27 27 27 27 28 27 26 25 23 23 24 25 27 28 28 27 26 23 17 18 23 26 27 22 19 20 18 17 16 16 15 15 14 13 13
20 21 21 22 22 23 23 23 23 23 23 23 22 22 22 22 22 22 22 22 23 23 22 21 21 21 22 21 19 19 20 18 16 17 18 18 18 17 18 19 20 21 22 23 24 24 24 24 25 26 25 26 27 27 27 27 28 29 28 27 26 25 26 27 28 28 29 29 29 29 26 19 20 25 26 26 22 20 20 18 17 17 17 17 16 15 14 14
19 19 20 20 21 22 22 22 22 22 22 22 22 22 22 22 22 22 22 22 22 22 21 21 21 21 21 21 19 18 18 16 14 14 16 17 17 16 17 18 20 21 22 23 24 25 25 24 23 24 25 26 27 27 28 28 28 28 27 27 26 26 28 29 28 27 27 27 28 30 27 21 23 26 27 27 22 20 20 18 17 18 19 18 17 18 16 15
17 18 19 20 20 21 21 22 22 22 22 22 22 22 22 22 22 22 22 22 22 21 20 21 20 21 21 20 18 18 17 15 13 13 14 15 16 16 16 17 19 20 22 23 24 24 24 24 24 24 25 26 27 27 28 28 29 28 27 27 27 28 28 27 27 26 26 28 27 27 26 24 25 27 29 27 23 21 21 18 17 18 19 19 19 19 19 17
17 17 18 19 20 21 21 22 22 22 22 22 22 22 22 22 22 23 23 22 21 20 20 20 20 20 21 19 18 18 17 16 14 13 14 14 15 15 16 17 18 19 20 21 21 22 23 24 24 25 26 27 28 27 27 27 28 27 27 29 29 28 27 26 26 25 27 27 25 25 25 25 26 28 29 27 23 22 22 19 18 19 19 19 18 17 19 19
16 16 17 18 19 20 21 21 22 22 22 22 22 22 22 23 23 23 23 22 21 20 20 20 19 19 19 18 18 18 17 17 16 15 14 14 14 15 16 17 17 17 17 18 19 21 22 22 23 24 25 26 26 25 24 25 26 27 28 29 28 28 27 25 24 24 25 23 21 23 24 25 27 28 29 27 24 22 21 18 16 17 17 15 14 16 20 21
15 15 16 17 18 19 20 20 21 21 22 22 22 22 23 23 23 23 22 22 22 22 21 20 18 19 18 17 17 17 17 17 17 16 15 14 14 15 16 16 16 16 16 16 18 19 19 20 21 22 21 21 21 21 22 25 27 27 27 26 25 26 26 24 22 24 24 19 17 19 20 23 26 27 28 27 24 21 19 16 14 16 15 11 13 16 20 19
15 15 15 16 17 17 18 19 20 20 21 21 22 22 23 22 22 22 22 23 22 22 22 20 19 19 17 16 16 17 17 17 17 17 16 16 15 16 16 16 15 16 16 16 16 17 18 18 18 20 20 19 20 21 24 27 26 25 24 23 23 25 26 24 22 23 23 18 14 17 20 22 23 24 25 22 19 17 17 18 16 13 11 11 13 16 19 16
16 15 15 15 16 17 17 18 18 19 20 21 21 22 21 21 21 21 22 22 22 22 21 21 21 19 17 16 17 17 17 17 17 17 17 17 17 17 16 15 16 16 17 16 15 16 15 15 17 19 20 21 22 24 26 26 24 23 23 22 24 26 27 24 24 23 21 16 13 14 18 21 21 19 17 15 13 11 14 16 14 10 9 11 14 16 18 16
16 16 16 16 16 17 17 17 18 18 19 19 20 20 20 21 21 21 21 22 22 22 22 22 21 19 18 17 17 17 18 18 18 17 17 18 19 18 16 16 17 17 17 16 15 15 15 15 17 19 19 21 22 24 24 23 23 24 23 24 25 27 27 25 25 23 19 17 15 12 13 17 19 16 12 11 12 11 11 12 13 11 10 12 14 17 18 19
16 16 17 17 17 18 18 18 18 18 18 19 19 19 20 21 21 21 22 21 21 21 21 22 23 21 20 18 17 18 19 19 18 18 18 19 19 18 17 18 18 17 16 16 16 17 17 18 18 18 19 20 22 22 21 20 21 22 24 25 26 27 26 24 25 23 19 18 18 16 13 14 17 16 12 11 13 13 12 13 14 14 13 14 16 19 19 20
18 17 17 18 18 19 19 19 19 18 19 19 19 19 20 21 22 22 21 21 21 20 20 22 22 20 20 19 18 18 19 19 19 19 19 18 18 18 18 19 18 16 16 17 19 20 20 20 20 20 21 22 23 23 21 19 19 19 22 25 27 27 26 25 24 23 20 20 21 20 17 14 14 14 13 13 14 15 15 16 17 16 16 17 19 20 20 20
21 19 18 18 18 19 19 19 19 19 19 18 19 21 21 21 21 21 21 20 20 19 19 21 21 20 21 20 17 18 19 19 19 19 19 18 18 19 20 20 18 17 18 18 20 21 21 21 22 23 23 23 24 24 23 22 19 18 20 25 27 28 27 25 24 23 22 22 23 23 19 16 16 16 15 16 17 17 18 18 18 18 19 20 20 19 19 20
23 22 21 20 19 19 19 20 19 19 18 17 18 21 23 22 20 20 20 19 19 19 18 19 21 22 23 20 17 19 20 19 20 21 20 20 21 21 21 19 19 20 20 21 21 21 22 22 23 23 24 24 24 25 24 22 21 19 21 26 28 30 28 26 25 24 24 24 25 24 22 20 20 19 18 19 20 20 21 22 22 21 22 23 22 20 20 21
24 24 23 22 21 20 19 20 20 19 18 17 18 21 22 22 21 21 21 20 19 19 18 19 20 21 22 21 20 20 20 20 22 21 20 20 22 23 22 20 20 22 23 23 22 22 22 23 23 23 23 23 24 24 23 22 23 21 23 28 30 31 30 27 26 27 27 27 27 26 25 24 24 23 22 23 23 23 24 25 25 24 24 24 23 22 23 23
24 24 24 24 23 22 21 20 20 20 19 18 20 21 21 20 21 21 21 20 18 18 19 20 21 21 23 24 21 20 20 22 22 22 22 23 23 24 23 20 20 24 25 24 22 22 23 23 23 23 23 24 24 24 24 24 23 21 24 30 33 33 32 29 28 29 30 29 29 29 28 28 28 27 26 25 26 26 27 28 29 28 27 27 26 26 26 24
24 23 23 24 25 24 23 22 20 20 20 20 21 22 21 21 21 20 20 19 17 17 18 20 21 22 24 24 22 21 21 22 22 22 24 26 25 25 23 21 23 26 27 26 24 24 24 24 24 24 24 25 25 26 26 24 21 20 25 31 34 35 34 32 31 31 33 32 32 33 32 30 30 29 28 27 28 30 31 32 33 32 31 30 29 29 29 27
25 23 23 23 24 25 25 24 23 22 21 22 22 22 22 22 22 22 21 18 17 18 18 19 20 21 23 23 21 21 22 23 21 21 23 25 25 25 24 25 26 28 29 28 26 25 25 25 25 25 25 25 26 26 25 23 20 21 23 27 33 36 36 34 33 34 34 34 33 34 34 33 33 31 30 29 29 31 33 35 36 36 35 33 33 32 31 30
27 25 23 23 24 24 25 26 25 24 23 23 22 23 23 24 24 23 20 17 18 19 19 20 22 22 21 21 20 20 22 23 22 20 21 23 25 25 25 26 27 28 29 27 24 24 24 26 26 25 24 24 25 24 22 20 19 21 22 24 28 34 37 37 36 36 36 35 34 34 35 35 35 34 32 31 30 30 31 34 36 37 36 35 34 33 32 32
29 27 25 25 24 23 25 27 26 25 25 24 23 23 24 26 26 23 20 18 19 20 20 22 24 24 24 25 23 22 23 24 22 20 20 22 22 21 21 23 25 26 28 25 23 23 24 25 26 25 24 24 23 22 20 19 19 19 22 25 27 29 35 39 40 39 38 38 37 36 37 36 37 38 37 34 31 29 28 30 31 34 36 36 36 34 33 33
30 28 27 26 25 25 27 27 25 25 27 26 25 25 25 26 24 20 19 21 21 20 21 23 25 25 27 28 27 25 25 25 24 22 22 23 22 20 21 23 25 26 27 26 24 24 24 24 24 24 23 22 21 20 18 18 19 19 20 25 28 29 31 36 40 42 41 39 39 39 39 38 38 39 38 35 31 29 29 29 30 31 33 35 35 34 33 34
29 28 28 28 28 28 31 29 25 26 27 28 27 27 27 26 21 17 18 21 21 22 23 25 26 27 26 26 27 28 28 27 26 25 25 25 24 23 23 24 25 26 27 26 25 25 24 23 24 23 22 21 20 17 16 17 19 20 20 23 27 29 30 33 37 41 41 40 40 40 38 39 40 41 40 37 32 30 29 29 29 29 31 33 34 34 34 34
28 27 27 28 30 32 34 32 28 27 28 28 28 29 28 23 19 17 19 21 23 25 25 25 25 25 24 24 25 28 28 28 28 28 28 27 24 22 21 22 25 27 27 27 26 27 25 24 24 23 22 23 21 19 18 20 20 20 22 24 25 27 28 30 33 37 40 40 40 39 37 37 39 40 40 38 34 31 29 27 27 27 28 30 32 34 34 33
29 27 26 28 31 35 36 34 30 29 29 30 31 30 25 22 20 20 22 24 25 25 24 23 24 23 23 23 24 25 25 28 30 29 28 26 23 21 20 20 23 24 25 25 25 27 26 24 24 24 23 23 22 21 21 22 21 21 24 25 25 26 26 28 30 33 36 37 37 36 33 32 34 35 35 34 32 31 29 27 26 26 27 28 29 31 32 32
29 28 28 28 31 35 36 34 33 32 31 33 33 29 24 23 22 23 25 26 26 25 24 24 24 24 23 24 24 24 24 27 30 30 30 28 26 25 23 22 23 23 22 23 24 26 25 24 24 25 24 24 23 21 23 25 24 23 23 24 26 27 27 28 29 29 31 30 30 30 28 28 29 31 31 30 29 28 28 27 26 26 26 26 27 29 29 29
28 29 30 29 30 33 34 33 33 33 33 35 34 29 26 25 24 25 27 28 27 28 27 26 25 25 26 25 25 26 26 27 28 28 28 30 29 29 26 25 26 24 23 23 24 25 26 24 23 23 25 26 25 23 24 27 25 22 22 24 26 27 28 28 29 29 28 26 26 25 25 26 28 28 29 28 25 24 24 25 26 25 24 24 26 27 27 27
28 30 30 29 30 32 32 32 33 35 36 36 34 30 28 26 25 26 28 29 29 29 28 28 27 27 28 28 27 28 27 27 28 27 27 30 31 29 27 26 27 26 25 25 24 25 26 25 23 22 23 24 25 24 25 27 25 23 24 25 25 27 28 29 27 27 26 24 23 22 22 23 24 24 25 24 23 22 21 21 23 23 21 20 22 23 24 24
28 30 29 29 31 32 31 31 33 35 36 35 33 31 30 28 28 29 29 30 30 30 29 29 29 29 29 30 30 30 29 29 30 30 30 31 31 29 27 27 27 27 27 27 27 27 27 25 23 22 21 23 25 25 27 29 26 23 25 27 26 27 29 29 27 26 25 23 21 20 20 19 19 20 21 21 22 22 21 21 21 21 20 20 21 22 23 24
30 30 28 28 30 32 32 32 32 33 32 31 30 30 31 31 31 31 31 32 32 31 31 31 31 31 31 31 31 32 32 32 32 33 34 34 32 31 30 30 29 28 29 30 30 30 29 26 25 22 21 23 25 25 27 29 26 22 24 27 28 28 28 29 28 27 27 24 23 22 20 18 18 19 20 20 21 21 20 21 21 21 21 21 22 23 24 24
30 30 28 28 29 31 33 33 32 31 30 28 28 29 32 33 33 32 33 34 34 33 33 33 33 33 33 33 33 33 34 34 33 33 34 34 35 34 33 33 32 31 31 32 33 32 30 28 27 25 23 23 25 26 27 27 26 24 23 26 29 30 30 29 28 28 28 27 27 26 24 21 19 20 20 19 19 19 19 19 20 21 21 21 21 22 24 24
27 29 28 27 28 30 33 34 33 31 30 28 29 30 31 32 32 33 35 36 36 35 36 36 36 36 35 35 35 35 35 35 34 34 32 32 35 37 37 36 35 33 33 34 35 35 33 31 29 28 26 24 25 28 30 30 30 29 28 28 29 31 32 31 29 29 29 29 29 28 26 24 22 21 20 19 19 19 19 20 20 20 21 22 22 23 23 23
22 25 26 26 27 29 32 34 34 32 31 30 30 31 31 30 31 33 36 38 38 37 39 39 38 38 38 38 37 36 37 36 35 34 31 29 32 38 40 39 37 35 34 35 36 37 36 35 32 31 30 29 29 30 33 34 35 35 33 31 31 32 32 31 30 29 29 29 30 29 27 25 23 22 22 21 20 19 18 19 20 21 22 23 23 23 23 22
18 21 23 24 25 27 30 33 32 31 31 32 32 33 31 29 30 33 37 39 39 40 41 42 41 41 41 40 39 38 38 38 36 35 32 29 30 35 39 41 39 37 36 35 35 36 37 37 36 33 32 33 33 34 36 36 37 37 35 32 32 32 31 30 29 28 28 28 29 29 27 26 25 24 24 22 21 20 20 21 22 23 24 24 24 25 25 25
17 18 23 23 21 24 28 29 30 31 32 33 33 33 32 30 30 32 35 38 40 42 43 43 42 43 43 42 41 40 40 38 37 36 35 32 32 33 35 37 38 37 36 36 37 37 38 40 39 36 35 35 35 35 37 38 37 36 36 34 33 33 32 31 30 29 29 29 30 30 29 27 27 27 26 25 24 24 24 24 25 26 26 26 27 28 29 28
15 16 23 26 23 23 25 26 28 31 32 33 34 31 30 30 30 30 32 36 39 42 43 44 44 43 43 43 42 42 41 39 37 37 36 35 35 34 34 35 35 34 33 34 34 34 35 39 41 41 39 38 36 36 37 39 37 36 36 35 34 34 32 32 31 32 32 32 32 33 31 30 30 29 29 29 28 28 28 27 27 27 27 28 29 29 30 30
13 13 22 29 28 27 26 23 25 30 30 31 33 30 27 28 29 28 30 33 37 41 43 44 44 44 43 44 43 42 40 38 37 37 37 37 38 37 36 36 35 34 32 31 31 30 31 35 40 42 42 41 39 38 38 38 37 37 37 34 33 33 33 33 34 34 35 36 36 35 34 33 32 32 32 32 32 31 31 30 30 30 30 30 30 31 32 33
11 11 20 28 30 30 27 19 16 23 30 30 29 27 25 26 28 29 30 31 34 39 42 44 44 44 44 43 43 42 40 37 35 36 37 38 38 38 38 37 37 36 34 33 32 31 31 33 35 36 37 37 39 40 40 40 39 39 39 37 34 34 34 34 35 35 36 37 37 37 36 36 35 35 34 34 34 34 34 33 34 34 34 34 34 35 36 37
12 8 16 25 30 32 31 24 15 16 23 29 29 28 27 27 27 29 31 32 34 36 40 43 44 44 44 43 42 41 41 38 35 35 36 37 38 38 37 37 36 34 33 33 33 34 34 34 33 30 29 30 32 35 38 40 39 36 37 37 37 37 36 36 35 36 36 37 38 38 39 39 38 38 37 37 37 37 37 37 38 38 38 38 37 38 39 40
14 7 10 20 26 29 31 30 26 19 17 20 25 27 26 27 27 29 30 32 33 35 37 41 43 44 44 44 44 43 42 41 37 35 36 38 38 37 36 35 35 34 33 32 32 33 35 36 36 33 31 30 30 31 34 37 37 35 34 35 37 37 37 37 37 37 37 38 39 40 40 41 40 40 40 40 40 40 40 40 41 41 41 42 42 42 43 43
14 10 5 13 22 26 27 28 30 28 21 17 19 22 24 25 25 26 28 31 33 34 34 36 39 41 42 42 42 42 42 42 40 38 39 40 40 39 38 36 35 35 35 34 33 32 33 34 35 36 35 34 33 33 35 37 38 38 38 37 36 37 38 39 39 39 39 40 40 41 42 42 42 42 42 43 43 43 43 43 43 44 44 45 46 46 47 46
Wind_Direction
254 254 253 253 252 252 252 252 252 251 251 251 249 248 247 246 245 246 246 246 247 248 248 249 249 249 250 250 251 252 253 253 253 252 252 251 250 251 251 251 251 251 251 251 251 250 250 250 250 251 250 250 251 251 253 255 257 258 258 258 255 251 246 235 220 220 225 221 218 219 218 217 216 217 221 225 231 234 237 244 254 260 265 269 272 276 280 283
254 254 254 254 254 253 253 253 252 252 251 251 251 250 249 248 247 247 246 246 246 247 248 249 250 250 251 251 252 253 253 254 254 254 253 252 252 252 252 251 251 251 251 251 251 251 250 251 251 251 251 252 253 253 255 256 257 258 257 256 252 247 245 234 217 215 221 222 218 217 218 218 216 220 224 227 233 238 240 244 252 258 263 269 275 279 282 285
254 254 254 254 254 254 253 253 253 253 252 252 252 251 251 250 248 248 247 247 247 248 249 249 250 251 251 252 252 253 253 253 254 254 254 254 254 254 254 253 252 251 251 251 251 251 251 252 252 252 252 253 254 254 256 257 257 257 256 254 243 241 241 231 219 214 217 222 219 216 219 219 220 224 229 234 238 241 244 248 254 258 261 267 274 281 286 289
253 253 254 254 254 254 254 253 253 253 253 252 252 252 252 251 250 249 249 248 248 248 250 250 251 251 252 252 253 253 253 253 254 254 255 255 255 255 254 254 253 252 251 251 250 250 251 252 252 251 250 250 251 252 254 255 255 255 255 248 236 239 241 235 229 222 220 223 221 218 220 222 224 229 235 243 245 246 249 253 257 261 263 266 270 276 284 289
253 254 254 254 254 254 254 254 254 253 253 252 252 252 252 252 251 250 250 250 250 250 251 251 252 252 252 253 254 254 254 254 255 255 254 254 254 254 254 253 252 252 251 250 249 249 250 250 250 249 247 247 249 251 251 252 252 251 250 243 237 240 240 238 237 232 227 227 225 222 223 226 231 235 242 252 255 253 255 258 262 266 267 268 270 274 279 285
254 254 254 255 255 255 255 254 254 254 253 253 253 253 253 253 253 252 251 250 250 251 252 252 253 253 253 254 255 255 256 256 255 255 254 254 254 253 253 252 251 250 249 248 247 247 247 246 246 245 244 244 247 248 247 249 249 248 246 242 240 237 234 237 239 237 236 233 229 228 231 233 237 242 248 261 264 258 256 260 265 269 270 269 269 273 278 282
255 255 255 256 256 256 256 255 255 254 255 255 256 256 255 255 254 253 252 251 251 252 252 253 253 253 253 254 256 257 258 257 256 255 256 255 255 253 252 251 250 248 247 246 245 244 243 242 242 241 241 242 244 243 244 247 248 245 242 239 239 235 229 233 236 235 240 240 235 235 237 238 243 247 249 262 264 257 257 262 266 268 269 268 270 275 280 282
256 255 255 256 256 256 256 255 255 255 256 257 258 258 257 256 255 254 252 251 251 251 252 252 252 253 254 255 256 258 259 259 258 257 257 256 255 254 252 250 249 247 245 244 243 242 241 239 238 238 238 238 238 237 240 243 244 242 239 237 238 236 229 232 237 235 239 242 240 241 242 242 245 246 249 259 261 259 262 265 268 270 270 271 275 279 280 280
255 255 255 255 256 257 256 256 256 256 257 258 258 258 257 256 255 254 252 251 251 250 251 251 251 252 253 254 256 258 259 259 259 257 256 255 254 254 252 250 248 246 244 243 242 241 238 236 235 235 234 235 235 236 239 243 243 240 240 240 242 241 235 237 244 242 242 243 242 242 243 245 246 245 250 256 255 255 261 264 267 272 275 278 281 279 276 276
255 255 254 254 255 256 256 256 257 257 258 258 258 258 257 256 255 254 252 251 249 249 250 250 251 251 252 254 256 257 257 257 257 257 256 254 253 252 252 251 248 245 243 240 238 235 233 232 233 234 235 236 236 238 242 245 246 244 243 246 245 243 240 242 247 249 249 249 247 246 244 245 246 247 254 256 253 253 257 262 265 268 272 276 278 275 270 269
256 255 254 254 254 255 256 257 258 258 259 259 258 257 257 256 255 253 251 250 249 249 249 249 250 250 252 253 254 255 256 256 255 255 254 253 252 251 250 249 247 245 241 237 234 233 233 233 235 236 238 240 240 241 244 246 248 248 248 249 247 243 241 243 248 251 253 252 251 251 246 242 245 250 255 255 255 256 259 262 264 266 270 272 270 265 258 261
258 255 253 253 253 254 255 256 258 259 259 258 257 256 255 255 254 252 250 249 249 248 248 249 249 249 251 251 251 253 254 254 253 251 251 251 250 249 248 246 244 241 238 235 234 234 235 236 238 238 240 242 243 244 245 246 248 248 248 249 248 245 244 244 249 252 254 254 252 250 245 243 248 250 252 253 253 258 261 263 264 264 266 265 260 254 254 265
260 256 253 252 252 253 254 256 257 258 257 256 255 255 254 254 253 252 250 248 248 248 248 248 248 248 249 248 248 250 252 252 252 250 248 248 248 247 246 243 240 237 235 235 235 235 236 237 238 239 241 243 244 245 246 246 246 247 247 248 248 247 246 244 244 246 248 249 248 248 245 243 247 246 248 252 252 254 257 259 260 259 255 251 248 249 259 273
264 259 255 253 252 253 254 255 256 256 256 255 255 254 254 253 252 250 249 247 246 247 247 246 247 248 247 246 245 248 253 253 251 250 248 246 244 243 241 239 235 233 232 232 232 233 234 235 236 238 240 241 243 245 245 245 245 246 247 247 247 246 245 243 242 243 246 247 246 246 245 239 241 244 246 250 249 251 255 255 253 251 244 240 243 250 261 274
267 261 257 254 253 253 254 254 254 254 254 254 254 253 253 252 250 249 247 246 245 245 245 245 246 246 246 244 242 245 251 253 251 249 248 245 240 238 236 234 231 229 228 228 229 230 231 232 233 235 235 237 239 241 242 242 242 243 245 246 244 243 244 245 246 246 246 245 242 242 242 235 236 242 245 248 248 249 252 249 247 245 241 240 245 253 260 268
268 263 259 256 255 254 254 254 253 253 253 252 252 252 251 250 250 249 247 245 244 243 243 244 245 245 245 244 242 243 246 250 249 245 244 241 236 233 232 230 228 227 227 228 229 230 230 229 229 229 230 230 233 236 238 239 239 239 239 240 239 239 242 245 246 243 238 237 235 236 236 234 236 240 243 244 243 245 246 241 240 241 239 241 248 257 265 270
268 265 261 258 257 255 254 254 253 253 252 251 251 250 249 248 248 247 245 243 241 240 241 243 243 244 245 244 242 242 243 245 245 242 241 238 234 230 228 228 225 225 226 227 230 230 230 229 228 227 228 229 229 231 234 236 237 235 234 236 237 239 241 242 241 236 237 235 229 229 230 231 236 240 242 242 240 240 242 240 241 242 239 242 254 271 279 280
270 266 263 260 258 256 255 254 253 253 253 252 250 249 248 247 247 246 244 241 238 237 238 241 243 244 246 246 245 243 243 243 243 241 239 237 235 231 229 228 224 224 225 227 229 230 231 230 229 229 230 232 232 230 231 234 233 232 233 236 238 240 238 235 230 229 234 230 224 228 231 232 235 239 242 242 239 237 241 245 247 243 237 246 269 283 285 288
271 268 265 262 259 257 256 255 254 253 253 252 251 249 247 246 246 245 243 241 238 236 236 238 242 245 247 248 248 246 244 244 244 243 241 238 236 233 231 229 226 224 224 228 231 230 229 229 228 228 228 232 231 226 227 230 230 231 234 235 235 235 232 227 221 224 227 217 212 220 226 231 234 238 241 244 244 241 242 242 235 231 235 258 283 283 283 290
272 268 265 263 261 258 257 255 254 254 253 252 250 249 247 246 245 244 242 241 239 238 238 237 238 242 245 246 246 244 243 243 243 243 242 238 235 233 231 229 228 227 225 227 232 232 229 228 227 225 222 222 220 218 223 227 228 229 229 228 229 231 228 222 212 215 220 211 204 210 215 223 229 234 239 244 251 248 242 237 230 233 251 274 283 284 286 293
272 269 265 263 261 259 257 256 255 255 254 252 251 250 249 247 244 242 240 240 239 238 238 238 238 241 245 246 244 242 242 242 241 241 242 240 237 234 230 228 227 228 225 223 228 231 230 230 230 226 223 220 218 219 224 227 227 225 222 220 223 226 226 218 203 205 213 207 205 216 219 221 224 230 237 243 252 253 245 242 242 250 267 276 279 285 289 296
273 270 266 263 261 259 258 257 256 256 255 254 253 252 250 246 243 242 240 240 239 237 238 239 240 240 242 244 245 245 243 239 237 238 240 240 238 234 229 227 226 227 225 221 223 224 223 225 228 229 228 226 224 226 229 230 228 222 216 216 219 222 224 217 204 202 209 206 204 214 224 224 221 220 227 242 253 259 254 245 246 253 259 266 271 278 285 294
273 271 267 264 262 260 258 257 256 257 256 255 254 253 250 246 243 241 240 240 239 237 237 239 239 239 240 241 243 244 243 240 236 235 237 240 240 235 230 229 228 225 222 220 219 219 219 221 223 225 226 225 224 227 228 228 229 221 212 213 217 219 220 215 206 205 209 206 200 200 210 222 223 221 227 247 259 264 260 248 245 251 254 255 260 270 282 293
272 271 268 265 262 261 260 257 255 255 255 254 253 253 251 248 244 242 240 240 239 237 237 239 241 241 240 239 239 242 243 241 237 235 234 238 242 238 233 232 228 222 218 220 220 218 218 220 221 221 221 221 222 222 221 219 223 220 211 211 216 218 217 213 210 209 209 203 197 196 200 213 228 234 242 256 263 265 263 254 250 255 260 258 262 273 283 292
268 269 269 267 263 261 259 258 255 253 253 253 253 252 250 248 246 244 242 241 240 238 236 239 240 239 239 237 234 238 242 242 239 237 233 236 239 236 234 232 227 221 217 219 223 221 221 222 224 224 222 223 224 223 220 216 217 219 213 213 217 219 217 214 212 209 207 203 200 198 199 209 222 229 241 254 260 263 261 255 250 254 261 263 266 274 281 288
265 265 266 267 266 262 259 258 256 253 251 252 252 251 249 248 247 245 244 242 241 239 235 237 239 239 240 236 230 233 237 239 239 237 234 233 235 235 234 229 225 225 221 220 222 222 223 225 227 228 228 228 227 226 224 218 217 219 214 213 218 220 217 213 210 207 206 207 206 203 200 207 215 218 229 242 249 254 255 253 248 248 255 262 265 268 273 281
263 262 262 263 263 263 260 258 256 253 250 249 249 250 249 248 246 245 245 244 244 242 238 237 238 238 239 236 231 231 232 234 236 237 236 236 235 234 232 226 225 228 227 226 225 225 227 228 227 229 230 230 230 229 226 222 220 220 214 211 216 220 216 212 207 204 206 210 210 208 205 207 210 214 224 235 240 245 250 252 250 249 254 260 261 263 269 276
263 262 260 259 259 260 260 259 257 255 251 248 247 248 249 247 245 244 245 246 244 242 240 239 237 237 238 237 234 233 232 234 235 234 233 233 231 230 228 224 225 228 229 227 223 225 231 231 229 229 229 228 229 229 229 225 221 218 212 208 214 219 217 213 208 203 206 210 211 214 215 212 209 211 222 236 243 245 248 250 250 251 254 258 259 262 267 270
260 261 261 259 257 257 258 258 257 255 252 249 247 248 248 247 245 244 244 244 241 239 240 240 238 236 238 240 238 237 236 235 234 233 233 233 230 228 224 221 225 229 230 227 219 221 229 232 232 232 232 230 228 229 230 227 218 213 212 208 211 217 218 216 212 209 210 212 214 219 224 222 218 217 224 238 247 248 249 249 248 249 252 255 256 258 263 265
257 257 259 260 258 256 256 256 255 254 252 250 248 249 249 248 246 245 244 243 241 239 240 242 241 238 240 243 241 240 239 236 234 232 234 235 230 225 222 222 226 229 231 228 221 219 225 231 234 234 234 233 231 229 229 227 217 211 212 210 211 217 219 218 218 218 219 220 221 224 229 231 232 231 231 238 246 250 249 247 247 249 252 253 252 255 260 263
257 253 254 257 258 257 256 254 252 252 251 251 250 248 248 247 246 245 244 245 243 242 241 242 243 242 242 242 238 236 237 235 232 228 228 232 230 226 223 224 227 230 233 230 221 219 223 229 234 235 234 233 234 232 230 231 225 216 216 216 214 217 219 221 223 224 226 229 229 231 234 238 240 241 239 239 246 252 249 246 247 249 251 252 252 254 258 262
258 254 251 253 255 256 255 252 250 251 251 250 249 247 246 246 246 246 247 247 245 243 240 240 242 240 239 239 234 229 230 231 228 224 223 227 229 227 224 224 226 228 233 230 221 220 226 231 235 237 235 234 235 234 235 241 241 232 226 223 220 220 221 222 225 228 230 233 235 236 238 243 246 247 246 243 246 250 247 247 249 248 248 250 251 254 256 258
261 256 250 249 251 252 253 252 249 249 249 248 247 246 246 246 247 248 249 246 244 242 240 239 241 240 238 237 233 227 226 227 226 222 220 223 225 223 219 221 225 226 229 229 220 218 225 234 240 240 237 235 235 235 239 249 253 246 236 229 226 225 224 224 227 231 233 235 238 240 242 246 249 252 252 250 247 246 245 249 252 248 246 247 248 251 253 255
263 258 251 248 248 249 250 249 247 247 248 247 246 245 245 247 249 248 245 243 240 237 236 237 239 239 238 235 229 225 223 223 225 224 223 222 222 224 225 226 229 229 229 229 223 219 222 231 239 240 236 235 237 237 240 246 249 243 235 231 229 229 228 227 228 232 235 238 240 243 246 250 253 255 256 255 252 250 248 248 248 245 243 243 245 247 249 252
263 260 254 248 245 246 247 247 245 245 247 247 245 244 244 247 249 243 237 236 234 232 231 233 235 235 235 232 229 229 226 223 225 227 228 226 222 225 231 231 232 232 230 228 226 224 225 228 234 235 232 234 237 237 236 239 241 238 232 230 231 231 232 232 231 232 235 238 241 245 249 252 255 256 256 255 254 252 251 247 244 243 240 239 242 245 247 250
261 259 254 248 244 244 245 245 244 242 244 245 245 244 243 243 244 238 232 232 233 234 231 231 234 235 234 232 231 233 230 226 227 227 227 227 222 219 223 224 226 228 227 226 226 228 230 232 234 233 230 234 237 234 234 236 235 235 234 232 232 233 233 234 235 234 235 238 241 244 247 251 254 254 253 252 251 250 249 248 248 247 244 242 242 244 247 250
261 256 251 248 246 245 245 244 244 242 242 244 244 243 240 238 238 236 234 232 232 233 232 231 233 233 234 233 230 230 227 224 227 228 226 226 221 216 215 217 223 225 223 225 228 229 232 236 238 236 233 237 241 237 234 235 233 232 234 236 236 236 236 236 237 239 240 242 244 246 248 250 252 253 251 250 250 248 248 250 252 252 251 248 246 246 247 250
261 255 250 247 247 248 247 245 244 243 241 242 244 242 239 236 235 236 237 235 232 232 231 230 231 231 232 234 231 229 225 219 222 225 225 225 223 219 217 217 222 224 221 223 227 228 230 231 236 238 234 237 242 238 235 236 233 229 230 233 235 236 238 239 240 244 247 249 249 250 250 249 249 251 252 250 249 248 248 250 253 253 248 243 242 243 244 246
260 256 252 247 245 247 248 245 243 242 241 241 242 240 237 234 232 233 236 238 235 233 231 230 231 231 232 234 232 231 226 218 219 222 221 224 225 223 220 219 222 223 221 221 223 224 226 225 229 235 234 235 236 233 235 236 232 227 227 229 232 231 233 236 239 243 247 250 251 251 252 250 248 249 251 251 249 245 243 245 249 248 242 236 235 239 242 244
260 257 254 247 243 243 245 243 242 242 242 242 241 240 236 231 229 228 230 235 235 234 231 230 231 233 234 235 234 233 229 223 224 226 225 225 226 224 221 219 222 224 223 224 223 224 224 220 220 227 232 232 228 227 232 231 224 224 227 227 229 228 228 233 237 240 244 247 249 252 257 257 251 248 251 252 251 246 240 240 244 245 242 238 238 241 243 246
258 256 253 247 241 240 240 241 241 242 243 243 242 240 235 230 227 225 225 229 232 232 231 229 231 233 234 236 237 236 234 230 228 230 229 227 225 223 222 220 222 226 226 226 226 226 224 217 213 218 226 229 227 228 231 227 219 221 227 228 229 228 228 232 236 241 245 248 250 253 258 257 248 243 244 247 251 251 246 240 241 245 247 246 245 246 249 251
256 252 251 247 242 237 237 238 239 240 239 239 238 237 235 231 227 224 224 225 226 229 230 229 230 232 233 235 237 238 238 235 231 231 233 231 224 221 222 221 222 225 227 228 231 232 229 220 210 213 223 227 228 230 232 231 228 226 227 230 232 232 232 234 238 244 248 251 253 254 254 252 247 242 241 242 247 253 255 252 249 250 253 255 255 254 256 259
258 250 246 245 241 236 235 235 236 236 235 234 234 234 234 231 227 224 223 223 222 224 228 229 229 231 233 235 236 238 240 239 235 234 238 238 229 221 220 220 219 222 225 228 233 237 237 229 216 212 218 227 230 229 228 232 236 232 227 229 233 235 237 240 244 250 252 252 253 253 252 252 250 247 245 245 247 251 257 260 259 258 260 263 265 265 265 266
267 249 239 240 240 236 234 234 234 234 234 232 233 234 233 230 227 223 222 223 221 221 225 229 228 229 231 234 235 238 241 243 241 239 240 242 237 229 224 222 219 220 224 228 231 235 238 237 229 217 216 225 232 231 227 228 231 229 226 228 232 235 241 246 250 253 253 252 252 253 254 255 254 252 251 250 250 252 253 256 258 261 264 267 269 269 271 274
278 249 232 233 240 239 235 234 233 233 234 232 232 233 233 231 227 223 222 224 222 220 223 227 228 228 230 232 234 237 241 244 246 245 242 239 240 238 233 229 226 224 226 229 232 233 234 237 236 227 220 224 230 231 230 230 229 226 224 226 230 233 240 247 251 251 250 251 252 254 256 258 258 257 254 252 253 255 255 256 259 261 264 266 267 267 271 273
288 251 224 219 232 240 237 233 230 229 231 232 233 235 233 230 227 224 224 225 224 222 223 225 227 229 230 232 234 235 238 242 245 247 246 241 238 239 237 233 232 231 230 231 234 236 236 235 235 232 226 226 229 230 231 234 233 226 222 222 226 231 237 245 249 250 249 249 251 253 255 257 258 257 256 256 257 259 260 260 260 260 260 262 264 265 267 269
295 254 221 209 213 226 230 230 229 228 230 233 234 234 230 226 225 225 225 225 226 226 225 226 227 229 231 233 234 234 236 239 242 245 247 246 242 239 237 235 236 237 236 237 238 240 242 240 238 236 230 226 228 230 232 237 237 230 222 219 222 228 236 244 248 250 250 251 254 256 256 255 255 257 259 260 261 262 262 261 260 259 260 261 262 264 265 267
302 253 221 209 207 213 220 228 230 225 224 227 228 228 225 224 226 227 226 226 228 229 229 228 228 229 232 234 235 236 237 238 241 242 244 247 247 246 244 242 244 247 248 248 247 248 249 247 242 240 237 232 229 228 230 235 237 234 229 227 227 232 239 244 247 249 252 255 258 259 259 257 257 258 260 262 264 264 264 264 263 262 262 263 265 266 268 270
318 257 223 213 210 211 212 219 229 226 226 228 228 228 227 228 229 228 228 227 228 231 232 231 231 230 232 235 237 239 240 239 241 243 244 246 248 250 251 251 253 256 257 256 253 251 251 251 247 243 242 240 235 231 231 233 236 236 235 235 236 238 242 244 246 249 252 256 258 260 261 260 260 260 260 262 264 265 266 265 265 264 264 265 266 267 269 271
338 277 228 217 215 213 212 214 221 231 236 237 237 237 235 234 233 230 230 229 228 230 232 233 233 233 232 234 237 240 242 240 239 242 245 248 249 250 251 253 256 258 259 259 256 251 249 251 252 250 247 247 244 240 237 237 239 240 237 235 235 237 240 243 247 250 252 254 256 257 258 259 259 260 260 262 263 265 267 267 267 268 268 269 269 269 270 271
354 323 243 223 218 217 219 221 221 222 230 236 238 239 237 235 234 232 232 232 231 230 232 233 235 235 235 236 237 238 241 242 241 240 243 247 249 250 250 252 255 257 259 259 257 253 249 249 251 253 255 256 255 252 249 248 252 253 247 240 236 236 240 244 248 250 251 252 252 253 254 255 256 258 259 261 262 264 266 267 268 270 271 271 271 271 271 271
358 352 288 233 223 220 222 226 226 223 224 232 239 243 242 237 234 233 234 235 234 233 234 235 236 238 240 240 240 239 240 242 242 242 242 243 246 250 252 254 256 257 258 258 256 254 252 251 251 253 255 257 257 256 256 256 258 260 259 255 250 248 249 250 251 251 251 251 251 250 251 252 254 256 258 260 262 263 264 265 266 267 269 270 271 271 271 271